Location: Schommer Observatory
(40.5200°N, 74.4500°W)
Time: 01:27:26
(UTC-05:00)

OTV 5 (USA 277) - Pass Details

Date: 11 November 2017
Orbit: 404 x 417 km, 43.0° (Epoch: 07 September)

Event Time Altitude Azimuth Distance (km) Brightness Sun altitude
Exits shadow 06:06:18 - 274° (W) 1,582 ? -6.8°
Reaches altitude 10° 06:06:37 10° 275° (W) 1,455 ? -6.8°
Maximum altitude 06:09:51 55° 354° (N) 488 ? -6.2°
Drops below altitude 10° 06:13:05 10° 74° (ENE) 1,457 ? -5.6°
Sets 06:15:13 0° 79° (ENE) 2,318 ? -5.2°
